TimeMDT,TemperatureF,Dew PointF,Humidity,Sea Level PressureIn,VisibilityMPH,Wind Direction,Wind SpeedMPH,Gust SpeedMPH,PrecipitationIn,Events,Conditions,WindDirDegrees,DateUTC
12:38 AM,66.2,62.6,88,30.04,9.0,East,12.7,-,0.01,Rain-Thunderstorm,Light Rain,90,2013-09-01 06:38:00
12:53 AM,66.0,63.0,90,29.86,10.0,ESE,13.8,-,0.01,Rain,Light Rain,110,2013-09-01 06:53:00
1:53 AM,66.9,63.0,87,29.87,10.0,NNW,10.4,20.7,0.00,Rain,Light Rain,340,2013-09-01 07:53:00
2:25 AM,66.2,62.6,88,30.05,10.0,West,13.8,-,0.00,,Clear,270,2013-09-01 08:25:00
2:53 AM,66.9,63.0,87,29.88,10.0,NW,6.9,-,0.00,,Clear,320,2013-09-01 08:53:00
3:53 AM,64.9,62.1,90,29.87,10.0,WSW,4.6,-,N/A,,Clear,250,2013-09-01 09:53:00
4:53 AM,64.9,62.1,90,29.86,10.0,WNW,4.6,-,N/A,,Clear,300,2013-09-01 10:53:00
5:53 AM,64.0,61.0,90,29.91,10.0,Calm,Calm,-,N/A,,Clear,0,2013-09-01 11:53:00
6:53 AM,66.0,62.1,87,29.94,10.0,Calm,Calm,-,N/A,,Clear,0,2013-09-01 12:53:00
7:53 AM,70.0,62.1,76,29.94,10.0,North,5.8,-,N/A,,Clear,10,2013-09-01 13:53:00
8:53 AM,73.0,62.1,68,29.98,10.0,Calm,Calm,-,N/A,,Clear,0,2013-09-01 14:53:00
9:53 AM,78.1,62.1,58,30.01,10.0,NNE,9.2,-,N/A,,Clear,30,2013-09-01 15:53:00
10:53 AM,77.0,64.0,64,30.02,10.0,NNE,12.7,-,N/A,,Clear,30,2013-09-01 16:53:00
11:53 AM,79.0,63.0,58,30.01,10.0,NE,13.8,-,N/A,,Clear,50,2013-09-01 17:53:00
12:53 PM,81.0,61.0,50,30.00,10.0,East,11.5,-,N/A,,Clear,90,2013-09-01 18:53:00
1:53 PM,82.9,59.0,44,29.99,10.0,East,10.4,18.4,N/A,,Clear,80,2013-09-01 19:53:00
2:53 PM,82.9,59.0,44,29.97,10.0,NE,12.7,-,N/A,,Clear,50,2013-09-01 20:53:00
3:53 PM,86.0,57.0,37,29.95,10.0,ENE,15.0,20.7,N/A,,Clear,70,2013-09-01 21:53:00
4:53 PM,84.0,55.9,38,29.94,10.0,NE,10.4,-,N/A,,Clear,50,2013-09-01 22:53:00
5:53 PM,82.0,55.9,41,29.96,10.0,East,8.1,-,N/A,,Clear,80,2013-09-01 23:53:00
6:53 PM,79.0,55.9,45,29.95,10.0,ENE,6.9,-,N/A,,Clear,70,2013-09-02 00:53:00
7:53 PM,73.0,57.9,59,29.97,10.0,ENE,3.5,-,N/A,,Mostly Cloudy,60,2013-09-02 01:53:00
8:53 PM,73.0,60.1,64,30.00,10.0,Calm,Calm,-,N/A,,Overcast,0,2013-09-02 02:53:00
9:53 PM,73.9,57.9,57,29.99,10.0,ESE,5.8,-,N/A,,Clear,120,2013-09-02 03:53:00
10:53 PM,73.0,59.0,61,29.99,10.0,ESE,4.6,-,N/A,,Partly Cloudy,110,2013-09-02 04:53:00
11:53 PM,70.0,57.9,65,30.00,10.0,WSW,3.5,-,N/A,,Scattered Clouds,240,2013-09-02 05:53:00